sat.trackr.live / text

‹ back to catalog

SHIYAN-12 02 (SY-12 02)

NORAD 50322 · 2021-129B

PAYLOAD ACTIVE UNKNOWN

§ Identity

Operator
Country
PRC
Launch date
2021-12-23
Launch site
WSC
Launch vehicle
Mass (kg)
RCS (m²)

Purposes: comms

External: N2YO · Heavens-Above · Gunter

§ Orbital elements

Epoch: 2026-09-19T19:40:22.492128Z

Period
1,433.67 min
Inclination
3.9098°
Eccentricity
0.0004061
Mean motion
1.00441696 rev/d
Perigee alt
35,721.9 km
Apogee alt
35,756.1 km
Semi-major
42,117.2 km
B*
0.0000e+0
RAAN
78.5634°
Arg perigee
95.9310°
Mean anomaly
274.7467°
Rev number
1,745

§ Raw data

SHIYAN-12 02 (SY-12 02)1 50322U 21129B   26262.81970477 -.00000120  00000+0  00000+0 0  99902 50322   3.9098  78.5634 0004061  95.9310 274.7467  1.00441696 17459

JSON: /api/v1/satellites/50322 · /tle

For live sub-satellite position, see the globe view (requires WebGL).

§ Visibility from observer

Set your observer location to see the next 7 days of passes ≥ 10°. The values pass through the URL so the page stays shareable.

No JS? Fill the form by hand. The geolocation button needs JavaScript.